Forside
METAR-TAF:

METAR-TAF

Lufthavne :

Uluru, Australien

Breddekreds: 25-11-10S, længdekreds: 130-58-32E, højde: 496 m

Aktuelle vejr

Denne rapport blev lavet for 35 minutter siden, kl. 02:00 UTC
Vind 13 kt fra øst
Temperatur 33°C
Fugtighed 12%
Tryk 1017 hPa
Sigt 10 km eller mere

METAR: YAYE 210200Z AUTO 08013KT 9999 // NCD 33/00 Q1017

Tid: 12:05 (02:35 UTC)


TAF: fraværende

Vejrobservationer og prognoser fra mere end 4000 lufthavne (METAR og TAF).

De gule og røde prikker repræsenterer de meteorologiske stationer.

Flyt musen over at se navnet på stationen.

Så klik over at se vejr observationer og prognoser.

At skifte det kort: Klik på de grønne knapper med et sort kors for at zoome ind; på den grønne knap med en bindestreg for at zoome ud; eller på de grønne pile for tilstødende kort.


METAR-TAF: